TimeEEST,TemperatureF,Dew PointF,Humidity,Sea Level PressureIn,VisibilityMPH,Wind Direction,Wind SpeedMPH,Gust SpeedMPH,PrecipitationIn,Events,Conditions,WindDirDegrees,DateUTC
12:50 AM,46.4,42.8,87,30.01,6.2,Variable,2.3,-,N/A,,Mostly Cloudy,0,2013-05-18 21:50:00
1:50 AM,46.4,41.0,81,30.01,6.2,Variable,2.3,-,N/A,,Mostly Cloudy,0,2013-05-18 22:50:00
2:50 AM,42.8,41.0,93,30.01,6.2,ENE,4.6,-,N/A,,Mostly Cloudy,60,2013-05-18 23:50:00
3:00 AM,44,40,83,,6,ENE,4.6,,,,Partly Cloudy,60,2013-05-19 00:00:00
3:50 AM,44.6,41.0,87,29.98,6.2,East,3.5,-,N/A,,Mostly Cloudy,100,2013-05-19 00:50:00
4:50 AM,42.8,41.0,93,29.98,6.2,East,5.8,-,N/A,,Scattered Clouds,90,2013-05-19 01:50:00
5:50 AM,46.4,42.8,87,30.01,6.2,Variable,1.2,-,N/A,,Scattered Clouds,0,2013-05-19 02:50:00
6:50 AM,53.6,44.6,72,30.01,6.2,ENE,3.5,-,N/A,,Scattered Clouds,60,2013-05-19 03:50:00
7:50 AM,55.4,44.6,67,30.01,6.2,Variable,2.3,-,N/A,,Scattered Clouds,0,2013-05-19 04:50:00
8:50 AM,57.2,46.4,67,30.01,6.2,WNW,6.9,-,N/A,,Mostly Cloudy,300,2013-05-19 05:50:00
9:00 AM,57,46,58,,12,WNW,6.9,,,,Partly Cloudy,300,2013-05-19 06:00:00
9:50 AM,57.2,48.2,72,30.01,6.2,WNW,12.7,-,N/A,,Mostly Cloudy,300,2013-05-19 06:50:00
10:50 AM,59.0,48.2,67,30.01,6.2,West,11.5,-,N/A,,Mostly Cloudy,280,2013-05-19 07:50:00
11:50 AM,59.0,48.2,67,29.98,6.2,West,10.4,-,N/A,,Mostly Cloudy,270,2013-05-19 08:50:00
12:50 PM,59.0,46.4,63,29.98,6.2,WNW,9.2,20.7,N/A,,Mostly Cloudy,290,2013-05-19 09:50:00
1:50 PM,59.0,46.4,63,29.95,6.2,WNW,8.1,-,N/A,,Mostly Cloudy,290,2013-05-19 10:50:00
2:50 PM,59.0,46.4,63,29.95,6.2,WNW,8.1,-,N/A,,Mostly Cloudy,290,2013-05-19 11:50:00
3:00 PM,58,46,53,,12,WNW,8.1,,,,Partly Cloudy,290,2013-05-19 12:00:00
3:50 PM,59.0,42.8,55,29.95,6.2,WSW,6.9,-,N/A,,Mostly Cloudy,250,2013-05-19 12:50:00
4:50 PM,59.0,48.2,67,29.95,6.2,WNW,10.4,-,N/A,,Mostly Cloudy,300,2013-05-19 13:50:00
5:50 PM,57.2,42.8,59,29.98,6.2,NE,8.1,-,N/A,,Mostly Cloudy,50,2013-05-19 14:50:00
6:16 PM,51.8,48.2,88,29.98,6.2,SW,20.7,-,N/A,Rain,Light Rain Showers,220,2013-05-19 15:16:00
6:39 PM,51.8,46.4,82,30.01,6.2,SW,9.2,-,N/A,,Mostly Cloudy,230,2013-05-19 15:39:00
6:50 PM,51.8,46.4,82,30.01,6.2,South,10.4,-,N/A,,Mostly Cloudy,180,2013-05-19 15:50:00
7:24 PM,51.8,44.6,76,30.01,6.2,South,6.9,-,N/A,Rain,Light Rain Showers,170,2013-05-19 16:24:00
7:50 PM,51.8,46.4,82,30.01,6.2,South,10.4,-,N/A,Rain,Light Rain Showers,190,2013-05-19 16:50:00
8:50 PM,51.8,44.6,76,30.01,6.2,Calm,Calm,-,N/A,,Mostly Cloudy,0,2013-05-19 17:50:00
9:00 PM,52,44,67,,6,Calm,Calm,,,Rain,Light Rain Showers,,2013-05-19 18:00:00
9:50 PM,51.8,44.6,76,30.01,6.2,SSE,3.5,-,N/A,,Mostly Cloudy,160,2013-05-19 18:50:00
10:50 PM,51.8,44.6,76,29.98,6.2,ESE,4.6,-,N/A,,Mostly Cloudy,120,2013-05-19 19:50:00
11:50 PM,50.0,44.6,82,29.98,6.2,NNE,5.8,-,N/A,,Mostly Cloudy,20,2013-05-19 20:50:00